K1ABC Weather Reports


Display with metric or nautical units.
time (UTC)temp
F
wind
direction
speed
MPH
gust
MPH
rain 1hr
in
rain 24hr
in
rain mn
in
humidity
%
barometer
mb
20260507192556 65 28 2.0 11.0 0.00 0.23 0.00 31 1005.0
20260507192357 65 42 3.0 11.0 0.00 0.23 0.00 34 1005.0
20260507192151 64 198 3.0 11.0 0.00 0.23 0.00 31 1004.9
20260507191951 64 226 3.0 11.0 0.00 0.23 0.00 35 1004.9
20260507191742 65 257 4.0 11.0 0.00 0.23 0.00 30 1005.0
20260507191539 65 235 4.0 11.0 0.00 0.23 0.00 32 1005.1
20260507191333 65 242 3.0 11.0 0.00 0.24 0.00 34 1004.9
20260507191128 65 276 3.0 14.0 0.00 0.24 0.00 30 1005.1
20260507190808 65 250 3.0 14.0 0.00 0.24 0.00 31 1005.1
20260507190606 65 209 3.0 14.0 0.00 0.24 0.00 34 1005.0
20260507190252 65 246 4.0 14.0 0.00 0.24 0.00 29 1005.0
20260507190046 65 244 4.0 14.0 0.00 0.24 0.00 33 1005.2
20260507185836 65 248 3.0 14.0 0.00 0.24 0.00 33 1005.1
20260507185626 66 262 3.0 14.0 0.00 0.24 0.00 29 1005.1
20260507185416 66 303 3.0 14.0 0.00 0.24 0.00 31 1005.3
20260507185215 66 214 2.0 14.0 0.00 0.24 0.00 33 1005.2
20260507185006 66 5 2.0 11.0 0.00 0.24 0.00 31 1005.2
20260507184800 65 240 2.0 11.0 0.00 0.24 0.00 31 1005.2
20260507184554 65 301 2.0 11.0 0.00 0.24 0.00 33 1005.2
20260507184349 65 318 3.0 11.0 0.00 0.24 0.00 31 1005.2
20260507184146 65 275 3.0 11.0 0.00 0.24 0.00 31 1005.1
20260507183942 65 336 3.0 10.0 0.00 0.24 0.00 31 1005.2
20260507183739 66 223 3.0 10.0 0.00 0.24 0.00 31 1005.3
20260507183417 66 9 3.0 10.0 0.00 0.24 0.00 30 1005.3
20260507183051 66 311 3.0 9.0 0.00 0.24 0.00 31 1005.2
20260507182847 66 293 3.0 18.0 0.00 0.24 0.00 33 1005.2
20260507182647 66 261 3.0 18.0 0.00 0.24 0.00 34 1005.2
20260507182437 66 289 3.0 18.0 0.00 0.24 0.00 32 1005.3
20260507182228 65 237 3.0 18.0 0.00 0.24 0.00 32 1005.2
20260507182018 65 198 3.0 18.0 0.00 0.24 0.00 34 1005.2
20260507181817 65 218 4.0 18.0 0.00 0.24 0.00 34 1005.2
20260507181611 65 306 3.0 18.0 0.00 0.24 0.00 31 1005.3
20260507181246 65 321 4.0 18.0 0.00 0.24 0.00 30 1005.3
20260507181035 65 5 3.0 18.0 0.00 0.24 0.00 31 1005.3
20260507180714 65 340 2.0 14.0 0.00 0.24 0.00 30 1005.4
20260507180508 65 136 3.0 14.0 0.00 0.24 0.00 34 1005.4
20260507180300 65 30 3.0 14.0 0.00 0.24 0.00 33 1005.4
20260507180053 65 178 3.0 14.0 0.00 0.24 0.00 32 1005.4
20260507175847 64 215 4.0 14.0 0.00 0.24 0.00 32 1005.4
20260507175647 64 344 4.0 14.0 0.00 0.24 0.00 34 1005.3
20260507175439 64 271 4.0 14.0 0.00 0.24 0.00 33 1005.4
20260507175234 64 22 4.0 14.0 0.00 0.24 0.00 36 1005.4
20260507175032 64 207 3.0 10.0 0.00 0.24 0.00 35 1005.3
20260507174823 65 287 3.0 10.0 0.00 0.24 0.00 34 1005.3
20260507174508 64 355 3.0 10.0 0.00 0.24 0.00 35 1005.3
20260507174308 65 257 3.0 10.0 0.00 0.24 0.00 33 1005.2
20260507173945 65 246 3.0 10.0 0.00 0.24 0.00 33 1005.2
20260507173738 65 228 3.0 12.0 0.00 0.24 0.00 35 1005.2
20260507173528 65 173 3.0 12.0 0.00 0.24 0.00 35 1005.3
20260507173328 65 252 2.0 12.0 0.00 0.24 0.00 35 1005.3
20260507173128 64 305 3.0 12.0 0.00 0.24 0.00 38 1005.3
20260507172926 64 228 4.0 12.0 0.00 0.24 0.00 35 1005.4
20260507172720 64 234 4.0 12.0 0.00 0.24 0.00 35 1005.3
20260507172516 64 198 4.0 12.0 0.00 0.24 0.00 37 1005.3
20260507172308 64 31 3.0 12.0 0.00 0.24 0.00 33 1005.5
20260507171951 64 292 3.0 12.0 0.00 0.24 0.00 36 1005.6
20260507171744 64 245 3.0 10.0 0.00 0.24 0.00 32 1005.4
20260507171541 64 196 3.0 10.0 0.00 0.24 0.00 36 1005.5
20260507171217 64 178 3.0 12.0 0.00 0.24 0.00 35 1005.5
20260507171018 64 302 3.0 12.0 0.00 0.24 0.00 33 1005.5
20260507170807 64 311 3.0 12.0 0.00 0.24 0.00 36 1005.6
20260507170603 64 295 3.0 12.0 0.00 0.24 0.00 35 1005.6
20260507170404 64 267 3.0 12.0 0.00 0.24 0.00 39 1005.6
20260507170156 63 286 3.0 12.0 0.00 0.24 0.00 39 1005.6
20260507165840 63 229 3.0 12.0 0.00 0.24 0.00 47 1005.7
20260507165634 62 279 3.0 12.0 0.00 0.24 0.00 42 1005.8
20260507165427 62 321 3.0 12.0 0.00 0.24 0.00 44 1005.8
20260507165222 62 188 3.0 9.0 0.00 0.24 0.00 45 1005.7
20260507165018 62 309 3.0 9.0 0.00 0.24 0.00 45 1005.8
20260507164808 62 226 3.0 9.0 0.00 0.24 0.00 48 1005.8
20260507164600 62 313 3.0 9.0 0.00 0.24 0.00 45 1005.7
20260507164353 62 265 3.0 9.0 0.00 0.24 0.00 45 1005.7
20260507164145 62 76 2.0 7.0 0.00 0.24 0.00 50 1005.7
20260507163940 61 5 2.0 13.0 0.00 0.24 0.00 50 1005.8
20260507163616 60 202 2.0 13.0 0.00 0.24 0.00 52 1006.0
20260507163253 61 204 2.0 13.0 0.00 0.24 0.00 51 1006.0
20260507163054 61 174 2.0 13.0 0.00 0.24 0.00 51 1006.0
20260507162854 61 337 2.0 13.0 0.00 0.24 0.00 51 1006.0
20260507162646 61 267 2.0 13.0 0.00 0.24 0.00 52 1005.9
20260507162442 61 273 2.0 13.0 0.00 0.24 0.00 52 1005.9
20260507162120 61 274 3.0 13.0 0.00 0.24 0.00 51 1006.0
20260507161911 61 302 3.0 13.0 0.00 0.24 0.00 54 1006.0
20260507161701 61 152 2.0 9.0 0.00 0.24 0.00 52 1006.0
20260507161458 61 103 2.0 9.0 0.00 0.24 0.00 51 1006.0
20260507161251 61 305 2.0 9.0 0.00 0.24 0.00 51 1006.0
20260507161042 61 227 2.0 9.0 0.00 0.24 0.00 51 1006.0
20260507160839 61 257 2.0 7.0 0.00 0.24 0.00 51 1006.2
20260507160517 61 236 2.0 7.0 0.00 0.24 0.00 53 1006.1
20260507160316 61 196 2.0 7.0 0.00 0.24 0.00 54 1006.1
20260507160113 61 269 2.0 7.0 0.00 0.24 0.00 51 1006.2
20260507155912 61 212 2.0 8.0 0.00 0.24 0.00 50 1006.1
20260507155707 61 321 2.0 8.0 0.00 0.24 0.00 50 1006.2
20260507155505 61 296 2.0 8.0 0.00 0.24 0.00 51 1006.2
20260507155305 61 298 2.0 8.0 0.00 0.24 0.00 50 1006.3
20260507154940 61 45 3.0 11.0 0.00 0.24 0.00 51 1006.4
20260507154617 61 346 3.0 11.0 0.00 0.24 0.00 51 1006.4
20260507154413 60 209 3.0 11.0 0.00 0.24 0.00 53 1006.5
20260507154203 60 239 3.0 11.0 0.00 0.24 0.00 52 1006.5
20260507153959 60 228 3.0 11.0 0.00 0.24 0.00 52 1006.5
20260507153750 60 265 3.0 11.0 0.00 0.24 0.00 52 1006.5
20260507153543 60 274 3.0 11.0 0.00 0.24 0.00 55 1006.6
20260507153339 60 294 3.0 11.0 0.00 0.24 0.00 51 1006.6
20260507153018 60 11 2.0 7.0 0.00 0.24 0.00 52 1006.6
20260507152652 60 207 1.0 12.0 0.00 0.24 0.00 53 1006.6
20260507152334 60 257 1.0 12.0 0.00 0.24 0.00 52 1006.7
20260507152134 60 238 1.0 12.0 0.00 0.24 0.00 50 1006.7
20260507151924 60 215 1.0 12.0 0.00 0.24 0.00 52 1006.7
20260507151723 60 267 2.0 12.0 0.00 0.24 0.00 56 1006.7
20260507151357 60 175 3.0 12.0 0.00 0.24 0.00 52 1006.8
20260507151148 61 241 3.0 12.0 0.00 0.24 0.00 53 1006.8
20260507150949 61 175 3.0 12.0 0.00 0.24 0.00 48 1006.9
20260507150739 61 30 3.0 11.0 0.00 0.24 0.00 51 1006.9
20260507150538 61 303 3.0 11.0 0.00 0.24 0.00 52 1006.9
20260507150338 61 13 4.0 11.0 0.00 0.24 0.00 50 1006.9
20260507150130 61 280 4.0 10.0 0.00 0.24 0.00 51 1006.8
20260507145925 61 292 4.0 10.0 0.00 0.24 0.00 54 1006.9
20260507145724 61 263 4.0 10.0 0.00 0.24 0.00 51 1006.9
20260507145522 61 254 4.0 10.0 0.00 0.24 0.00 51 1007.0
20260507145320 61 300 3.0 10.0 0.00 0.24 0.00 50 1007.0
20260507145117 61 235 3.0 10.0 0.00 0.24 0.00 50 1007.0
20260507144914 61 233 2.0 9.0 0.00 0.24 0.00 52 1006.9
20260507144710 61 216 3.0 9.0 0.00 0.24 0.00 55 1006.9
20260507144347 61 287 3.0 9.0 0.00 0.24 0.00 51 1006.8
20260507144137 60 25 4.0 9.0 0.00 0.24 0.00 55 1006.9
20260507143815 60 205 3.0 9.0 0.00 0.24 0.00 55 1006.8
20260507143609 60 254 3.0 9.0 0.00 0.24 0.00 54 1006.9
20260507143401 60 227 2.0 9.0 0.00 0.24 0.00 52 1006.8
20260507143202 60 328 2.0 9.0 0.00 0.24 0.00 50 1006.8
20260507142952 60 227 2.0 9.0 0.00 0.24 0.00 55 1006.7
20260507142742 60 240 2.0 9.0 0.00 0.24 0.00 55 1006.8
20260507142426 60 221 2.0 9.0 0.00 0.24 0.00 52 1006.8
20260507142215 60 239 3.0 9.0 0.00 0.24 0.00 52 1006.8
20260507142005 61 258 2.0 9.0 0.00 0.24 0.00 54 1006.7
20260507141800 61 275 2.0 6.0 0.00 0.24 0.00 53 1006.6
20260507141436 61 261 2.0 6.0 0.00 0.24 0.00 52 1006.7
20260507141233 61 307 2.0 6.0 0.00 0.24 0.00 52 1006.7
20260507141027 61 60 2.0 6.0 0.00 0.24 0.00 53 1006.7
20260507140823 60 47 2.0 6.0 0.00 0.24 0.00 54 1006.7
20260507140613 60 14 2.0 6.0 0.00 0.24 0.00 50 1006.7
20260507140403 60 209 1.0 9.0 0.00 0.24 0.00 51 1006.7
20260507140157 60 296 1.0 9.0 0.00 0.24 0.00 52 1006.8
20260507135949 60 355 1.0 9.0 0.00 0.24 0.00 54 1006.8
20260507135741 60 50 1.0 9.0 0.00 0.24 0.00 53 1006.8
20260507135541 60 262 1.0 9.0 0.00 0.24 0.00 52 1006.7
20260507135334 59 44 2.0 9.0 0.00 0.24 0.00 58 1006.7
20260507135009 59 201 2.0 9.0 0.00 0.24 0.00 56 1006.7
20260507134803 59 80 2.0 9.0 0.00 0.24 0.00 53 1006.7
20260507134556 59 26 1.0 8.0 0.00 0.24 0.00 53 1006.8
20260507134233 58 55 1.0 3.0 0.00 0.24 0.00 58 1006.8
20260507134033 58 65 1.0 3.0 0.00 0.24 0.00 57 1006.9
20260507133828 58 115 1.0 3.0 0.00 0.24 0.00 58 1006.9
20260507133618 58 85 1.0 7.0 0.00 0.24 0.00 58 1007.0
20260507133415 58 242 2.0 7.0 0.00 0.24 0.00 58 1007.0
20260507133209 58 214 1.0 7.0 0.00 0.24 0.00 63 1007.1
20260507132850 58 214 1.0 7.0 0.00 0.24 0.00 59 1007.2
20260507132643 57 28 1.0 7.0 0.00 0.24 0.00 59 1007.2
20260507132434 57 22 1.0 7.0 0.00 0.24 0.00 61 1007.2
20260507132110 56 5 1.0 7.0 0.00 0.24 0.00 62 1007.2
20260507131906 56 350 1.0 7.0 0.00 0.24 0.00 63 1007.3
20260507131659 56 140 1.0 7.0 0.00 0.24 0.00 60 1007.3
20260507131457 56 285 1.0 7.0 0.00 0.24 0.00 60 1007.3
20260507131255 56 157 2.0 7.0 0.00 0.24 0.00 61 1007.3
20260507130939 56 291 2.0 7.0 0.00 0.24 0.00 64 1007.3
20260507130736 55 10 1.0 6.0 0.00 0.24 0.00 65 1007.3
20260507130530 55 228 2.0 6.0 0.00 0.24 0.00 65 1007.3
20260507130330 55 228 2.0 6.0 0.00 0.24 0.00 62 1007.4
20260507130124 55 23 1.0 6.0 0.00 0.24 0.00 65 1007.4
20260507125916 55 193 1.0 6.0 0.00 0.24 0.00 65 1007.4
20260507125710 55 300 1.0 6.0 0.00 0.24 0.00 63 1007.4
20260507125503 55 236 1.0 6.0 0.00 0.24 0.00 65 1007.3
20260507125253 55 270 1.0 7.0 0.00 0.24 0.00 71 1007.4
20260507124933 55 262 1.0 7.0 0.00 0.24 0.00 67 1007.4
20260507124730 55 321 1.0 7.0 0.00 0.24 0.00 67 1007.4
20260507124527 54 303 1.0 7.0 0.00 0.24 0.00 69 1007.5
20260507124324 54 294 1.0 7.0 0.00 0.24 0.00 70 1007.4
20260507124117 54 209 1.0 7.0 0.00 0.24 0.00 71 1007.5
20260507123913 54 209 1.0 7.0 0.00 0.24 0.00 74 1007.5
20260507123555 54 209 1.0 7.0 0.00 0.24 0.00 73 1007.5
20260507123350 53 0 1.0 7.0 0.00 0.24 0.00 73 1007.5
20260507123030 53 296 1.0 4.0 0.00 0.24 0.00 73 1007.4
20260507122706 53 315 1.0 4.0 0.00 0.24 0.00 73 1007.5
20260507122500 52 227 1.0 4.0 0.00 0.24 0.00 75 1007.6
20260507122256 52 227 1.0 4.0 0.00 0.24 0.00 75 1007.6
20260507122057 52 202 1.0 4.0 0.00 0.24 0.00 74 1007.6
20260507121847 52 202 1.0 4.0 0.00 0.24 0.00 74 1007.6
20260507121641 52 304 1.0 3.0 0.00 0.24 0.00 76 1007.5
20260507121442 52 236 1.0 3.0 0.00 0.24 0.00 75 1007.6
20260507121120 51 225 1.0 3.0 0.00 0.24 0.00 77 1007.5
20260507120915 51 288 1.0 10.0 0.00 0.24 0.00 78 1007.5
20260507120716 51 40 0.0 10.0 0.00 0.24 0.00 79 1007.6
20260507120506 51 199 1.0 10.0 0.00 0.24 0.00 79 1007.6
20260507120306 51 199 1.0 10.0 0.00 0.24 0.00 78 1007.5
20260507120104 51 255 1.0 10.0 0.00 0.24 0.00 78 1007.4
20260507115746 51 275 1.0 10.0 0.00 0.24 0.00 79 1007.5
20260507115544 51 336 1.0 10.0 0.00 0.24 0.00 78 1007.5
20260507115339 50 342 1.0 10.0 0.00 0.24 0.00 80 1007.6
20260507115021 50 142 0.0 4.0 0.00 0.24 0.00 83 1007.5
20260507114705 49 264 0.0 4.0 0.00 0.24 0.00 82 1007.4
20260507114456 49 242 0.0 4.0 0.00 0.24 0.00 84 1007.4
20260507114249 49 329 0.0 3.0 0.00 0.24 0.00 84 1007.4
20260507114049 49 329 0.0 3.0 0.00 0.24 0.00 83 1007.2
20260507113846 49 57 0.0 3.0 0.00 0.24 0.00 83 1007.2
20260507113645 49 273 0.0 3.0 0.00 0.24 0.00 83 1007.2
20260507113442 49 310 1.0 4.0 0.00 0.24 0.00 83 1007.1
20260507113233 49 59 1.0 4.0 0.00 0.24 0.00 83 1007.2
20260507113032 49 86 1.0 4.0 0.00 0.24 0.00 82 1007.1
20260507112825 49 331 0.0 4.0 0.00 0.24 0.00 84 1007.1
20260507112500 49 303 0.0 4.0 0.00 0.24 0.00 84 1007.2
20260507112257 48 336 0.0 4.0 0.00 0.24 0.00 83 1007.2
20260507112051 48 277 0.0 4.0 0.00 0.24 0.00 84 1007.3
20260507111731 48 277 0.0 4.0 0.00 0.24 0.00 84 1007.4
20260507111525 48 355 0.0 0.0 0.00 0.24 0.00 85 1007.5
20260507111208 48 302 0.0 3.0 0.00 0.24 0.00 85 1007.5
20260507111004 48 256 0.0 2.0 0.00 0.24 0.00 85 1007.5
20260507110756 48 259 0.0 2.0 0.00 0.24 0.00 86 1007.4
20260507110436 48 355 0.0 4.0 0.00 0.24 0.00 85 1007.1
20260507110228 48 355 0.0 4.0 0.00 0.24 0.00 84 1007.2
20260507110020 48 276 0.0 2.0 0.00 0.24 0.00 85 1007.4
20260507105815 48 13 0.0 4.0 0.00 0.24 0.00 85 1007.2
20260507105614 48 355 0.0 4.0 0.00 0.24 0.00 85 1006.9
20260507105252 48 346 0.0 4.0 0.00 0.24 0.00 86 1007.0
20260507104936 48 324 0.0 2.0 0.00 0.24 0.00 86 1007.1
20260507104734 48 355 0.0 2.0 0.00 0.24 0.00 86 1006.9
20260507104418 48 355 0.0 2.0 0.00 0.24 0.00 86 1006.9
20260507104219 48 355 0.0 2.0 0.00 0.24 0.00 86 1006.9
20260507104014 48 17 0.0 0.0 0.00 0.24 0.00 87 1006.9
20260507103806 48 17 0.0 0.0 0.00 0.24 0.00 86 1006.9
20260507103559 48 17 0.0 2.0 0.00 0.24 0.00 86 1006.8
20260507103349 48 5 0.0 0.0 0.00 0.24 0.00 86 1006.8
20260507103139 48 5 0.0 4.0 0.00 0.24 0.00 86 1006.9
20260507102928 48 9 0.0 4.0 0.00 0.24 0.00 86 1006.8
20260507102722 48 5 0.0 2.0 0.00 0.24 0.00 88 1006.8
20260507102404 48 171 0.0 2.0 0.00 0.24 0.00 88 1007.0
20260507102200 48 298 0.0 2.0 0.00 0.24 0.00 87 1007.0
20260507101956 48 20 1.0 4.0 0.00 0.24 0.00 87 1006.9
20260507101755 48 5 0.0 4.0 0.00 0.24 0.00 87 1007.0
20260507101431 48 26 0.0 4.0 0.00 0.24 0.00 88 1007.0
20260507101224 48 296 0.0 4.0 0.00 0.24 0.00 88 1007.0
20260507101015 48 338 0.0 1.0 0.00 0.24 0.00 88 1006.9
20260507100652 48 346 0.0 0.0 0.00 0.24 0.00 88 1006.8
20260507100453 48 345 0.0 3.0 0.00 0.24 0.00 88 1006.9
20260507100251 48 313 0.0 3.0 0.00 0.24 0.00 89 1007.0
20260507100046 48 325 0.0 3.0 0.00 0.24 0.00 89 1007.3
20260507095841 48 281 0.0 3.0 0.00 0.24 0.00 89 1007.0
20260507095523 48 309 0.0 3.0 0.00 0.24 0.00 88 1006.8
20260507095324 48 312 0.0 3.0 0.00 0.24 0.00 89 1006.8
20260507095121 48 35 0.0 2.0 0.00 0.24 0.00 89 1006.8
20260507094922 48 9 0.0 2.0 0.00 0.24 0.00 89 1006.8
20260507094713 48 39 0.0 2.0 0.00 0.24 0.00 89 1006.8
20260507094512 48 279 0.0 2.0 0.00 0.24 0.00 89 1007.1
20260507094150 48 279 0.0 2.0 0.00 0.24 0.00 89 1007.1
20260507093945 48 279 0.0 2.0 0.00 0.24 0.00 89 1007.0
20260507093741 48 279 0.0 2.0 0.00 0.24 0.00 88 1006.9
20260507093536 48 302 0.0 3.0 0.00 0.24 0.00 88 1006.8
20260507093211 48 324 0.0 3.0 0.00 0.24 0.00 88 1006.8
20260507093006 48 324 1.0 3.0 0.00 0.24 0.00 89 1006.9
20260507092806 48 267 0.0 3.0 0.00 0.24 0.00 89 1006.9
20260507092559 48 61 0.0 3.0 0.00 0.24 0.00 89 1006.9
20260507092352 48 13 0.0 3.0 0.00 0.24 0.00 89 1006.9
20260507092148 48 222 0.0 3.0 0.00 0.24 0.00 89 1007.0
20260507091942 48 320 0.0 3.0 0.00 0.24 0.00 89 1007.0
20260507091621 48 322 0.0 3.0 0.00 0.24 0.00 89 1007.0
20260507091421 48 287 0.0 7.0 0.00 0.24 0.00 89 1006.8
20260507091212 48 232 0.0 7.0 0.00 0.24 0.00 89 1006.5
20260507091011 48 296 0.0 7.0 0.00 0.24 0.00 89 1006.5
20260507090808 48 248 1.0 7.0 0.00 0.24 0.00 90 1006.6
20260507090558 48 141 0.0 7.0 0.00 0.24 0.00 90 1006.7
20260507090350 48 141 0.0 7.0 0.00 0.24 0.00 90 1006.5
20260507090143 48 141 0.0 7.0 0.00 0.24 0.00 90 1006.4
20260507085937 48 271 0.0 7.0 0.00 0.24 0.00 89 1006.4
20260507085731 48 234 0.0 7.0 0.00 0.24 0.00 89 1006.5
20260507085523 48 303 0.0 2.0 0.00 0.24 0.00 89 1006.4
20260507085315 48 271 0.0 3.0 0.00 0.24 0.00 89 1006.6
20260507085115 49 268 1.0 3.0 0.00 0.24 0.00 89 1006.7
20260507084757 49 268 1.0 3.0 0.00 0.24 0.00 89 1006.6
20260507084438 49 268 0.0 3.0 0.00 0.24 0.00 89 1006.3
20260507084230 49 266 0.0 3.0 0.00 0.24 0.00 88 1006.2
20260507084022 49 222 1.0 3.0 0.00 0.24 0.00 88 1006.3
20260507083822 49 342 1.0 3.0 0.00 0.24 0.00 88 1006.3
20260507083622 49 337 0.0 3.0 0.00 0.24 0.00 88 1006.1
20260507083301 49 13 1.0 3.0 0.00 0.24 0.00 87 1006.2
20260507083054 49 261 1.0 3.0 0.00 0.24 0.00 88 1006.3
20260507082849 49 261 1.0 3.0 0.00 0.24 0.00 88 1006.4
20260507082640 49 261 1.0 3.0 0.00 0.24 0.00 87 1006.4
20260507082441 49 334 0.0 2.0 0.00 0.24 0.00 88 1006.4
20260507082231 49 241 0.0 2.0 0.00 0.24 0.00 87 1006.3
20260507082028 50 258 0.0 2.0 0.00 0.24 0.00 86 1006.3
20260507081826 50 262 0.0 3.0 0.00 0.24 0.00 86 1006.1
20260507081620 50 314 0.0 5.0 0.00 0.24 0.00 86 1006.0
20260507081410 50 69 0.0 5.0 0.00 0.24 0.00 86 1006.2
20260507081055 50 235 1.0 5.0 0.00 0.24 0.00 86 1006.2
20260507080849 50 232 1.0 5.0 0.00 0.24 0.00 86 1006.2
20260507080646 50 232 1.0 7.0 0.00 0.24 0.00 85 1006.2
20260507080439 50 264 1.0 7.0 0.00 0.24 0.00 85 1006.3
20260507080114 50 63 1.0 7.0 0.00 0.24 0.00 85 1006.4
20260507075906 50 273 1.0 7.0 0.00 0.24 0.00 85 1006.4
20260507075707 50 300 1.0 7.0 0.00 0.24 0.00 85 1006.4
20260507075459 50 259 2.0 8.0 0.00 0.24 0.00 85 1006.4
20260507075255 50 290 2.0 8.0 0.00 0.24 0.00 85 1006.4
20260507075048 50 254 2.0 8.0 0.00 0.24 0.00 84 1006.3
20260507074843 50 273 2.0 8.0 0.00 0.24 0.00 84 1006.2
20260507074638 50 321 2.0 8.0 0.00 0.24 0.00 85 1006.0
20260507074317 50 262 1.0 8.0 0.00 0.24 0.00 85 1005.9
20260507074002 50 313 2.0 8.0 0.00 0.24 0.00 85 1005.8
20260507073753 51 256 1.0 8.0 0.00 0.24 0.00 85 1006.0
20260507073548 51 309 1.0 7.0 0.00 0.24 0.00 85 1006.0
20260507073345 51 253 1.0 7.0 0.00 0.24 0.00 85 1006.0
20260507073141 51 320 1.0 7.0 0.00 0.24 0.00 86 1006.0
20260507072936 51 288 1.0 7.0 0.00 0.24 0.00 85 1005.9
20260507072727 51 211 1.0 7.0 0.00 0.24 0.00 85 1005.7
20260507072528 51 21 1.0 7.0 0.00 0.24 0.00 85 1005.8
20260507072324 51 232 1.0 7.0 0.00 0.24 0.00 85 1005.8
20260507072124 51 287 1.0 9.0 0.00 0.24 0.00 86 1005.8
20260507071924 51 288 1.0 9.0 0.00 0.24 0.00 85 1005.9
20260507071719 51 190 1.0 9.0 0.00 0.24 0.00 86 1006.0
20260507071511 51 331 2.0 9.0 0.00 0.24 0.00 86 1005.9
20260507071149 51 276 2.0 9.0 0.00 0.24 0.00 85 1006.1
20260507070828 51 233 2.0 9.0 0.00 0.24 0.00 85 1006.1
20260507070629 51 233 2.0 9.0 0.00 0.24 0.00 85 1006.0
20260507070426 51 250 2.0 9.0 0.00 0.24 0.00 85 1005.8
20260507070218 51 242 2.0 9.0 0.00 0.24 0.00 85 1005.7
20260507070016 51 214 2.0 10.0 0.00 0.24 0.00 86 1005.6
20260507065815 51 214 3.0 10.0 0.00 0.24 0.00 85 1005.7
20260507065615 51 309 2.0 10.0 0.00 0.24 0.00 85 1005.6
20260507065413 51 5 2.0 10.0 0.00 0.24 0.00 85 1005.7
20260507065204 51 207 2.0 10.0 0.00 0.24 0.00 86 1005.8
20260507065003 51 277 2.0 10.0 0.00 0.24 0.00 86 1005.9
20260507064757 51 241 2.0 10.0 0.00 0.24 0.00 86 1005.9
20260507064548 51 254 2.0 10.0 0.00 0.24 0.00 86 1005.8
20260507064340 51 263 2.0 10.0 0.00 0.24 0.00 87 1005.7
20260507064026 51 307 1.0 7.0 0.00 0.24 0.00 86 1005.5
20260507063815 51 284 1.0 7.0 0.00 0.24 0.00 86 1005.5
20260507063459 51 59 1.0 5.0 0.00 0.24 0.00 86 1005.5
20260507063259 52 131 1.0 5.0 0.00 0.24 0.00 86 1005.6
20260507063055 52 206 1.0 5.0 0.00 0.24 0.00 86 1005.6
20260507062850 52 252 1.0 5.0 0.00 0.24 0.00 86 1005.4
20260507062645 52 284 1.0 6.0 0.00 0.24 0.00 86 1005.4
20260507062441 52 290 1.0 6.0 0.00 0.24 0.00 85 1005.6
20260507062125 52 286 1.0 6.0 0.00 0.24 0.00 86 1005.6
20260507061803 52 174 1.0 9.0 0.00 0.24 0.00 85 1005.5
20260507061447 52 281 1.0 9.0 0.00 0.24 0.00 84 1005.5
20260507061248 52 227 1.0 9.0 0.00 0.24 0.00 84 1005.6
20260507061039 52 347 1.0 9.0 0.00 0.24 0.00 85 1005.6
20260507060834 52 243 1.0 9.0 0.00 0.24 0.00 84 1005.6
20260507060514 52 266 1.0 9.0 0.00 0.24 0.00 85 1005.6
20260507060307 52 273 2.0 9.0 0.00 0.24 0.00 85 1005.6
20260507060057 52 191 2.0 9.0 0.00 0.24 0.00 85 1005.6
20260507055858 52 248 2.0 9.0 0.00 0.24 0.00 84 1005.7
20260507055650 52 240 2.0 7.0 0.00 0.24 0.00 84 1005.6
20260507055452 52 236 2.0 7.0 0.00 0.24 0.00 85 1005.9
20260507055131 52 298 2.0 7.0 0.00 0.24 0.00 85 1005.9
20260507054924 52 220 2.0 5.0 0.00 0.24 0.00 85 1006.0
20260507054718 52 246 2.0 4.0 0.00 0.24 0.00 85 1006.0
20260507054400 52 298 1.0 4.0 0.00 0.24 0.00 85 1006.0
20260507054159 52 269 1.0 6.0 0.00 0.24 0.00 85 1005.9
20260507053955 52 261 1.0 6.0 0.00 0.24 0.00 86 1006.0
20260507053746 52 263 2.0 6.0 0.00 0.24 0.00 85 1005.9
20260507053544 52 289 2.0 6.0 0.00 0.24 0.00 85 1005.9
20260507053345 52 220 2.0 6.0 0.00 0.24 0.00 85 1005.8
20260507053139 52 217 2.0 6.0 0.00 0.24 0.00 86 1005.9
20260507052823 52 269 2.0 6.0 0.00 0.24 0.00 86 1006.0
20260507052616 52 267 2.0 6.0 0.00 0.24 0.00 86 1006.1
20260507052253 52 254 2.0 5.0 0.00 0.24 0.00 86 1005.9
20260507051933 53 275 2.0 5.0 0.00 0.24 0.00 86 1005.9
20260507051725 53 334 1.0 4.0 0.00 0.24 0.00 86 1005.9
20260507051526 53 281 1.0 8.0 0.00 0.24 0.00 86 1005.8
20260507051320 53 257 2.0 8.0 0.00 0.24 0.00 86 1005.7
20260507051001 53 205 2.0 8.0 0.00 0.24 0.00 86 1005.6
20260507050802 53 205 2.0 8.0 0.00 0.24 0.00 85 1005.6
20260507050603 53 265 2.0 10.0 0.00 0.24 0.00 86 1005.7
20260507050404 53 191 1.0 10.0 0.00 0.24 0.00 86 1005.8
20260507050044 53 191 2.0 10.0 0.00 0.24 0.00 86 1005.8
20260507045834 53 281 2.0 10.0 0.00 0.24 0.00 86 1005.8
20260507045630 53 225 2.0 10.0 0.00 0.24 0.00 86 1005.7
20260507045423 53 213 2.0 10.0 0.00 0.24 0.00 87 1005.7
20260507045219 54 278 2.0 10.0 0.00 0.24 0.00 86 1005.7
20260507045018 54 276 2.0 10.0 0.00 0.24 0.00 87 1005.6
20260507044815 54 272 2.0 10.0 0.00 0.24 0.00 86 1005.6
20260507044454 54 318 1.0 7.0 0.00 0.24 0.00 87 1005.6
20260507044249 54 305 1.0 7.0 0.00 0.24 0.00 87 1005.6
20260507044049 54 271 1.0 7.0 0.00 0.24 0.00 87 1005.6
20260507043734 54 257 1.0 7.0 0.00 0.24 0.00 87 1005.6
20260507043534 54 232 1.0 12.0 0.00 0.24 0.00 87 1005.7
20260507043330 55 316 1.0 12.0 0.00 0.24 0.00 86 1005.7
20260507043009 55 275 1.0 12.0 0.00 0.24 0.00 87 1005.8
20260507042651 55 260 1.0 12.0 0.00 0.24 0.00 87 1005.9
20260507042443 55 252 2.0 12.0 0.00 0.24 0.00 87 1005.9
20260507042238 55 252 2.0 12.0 0.00 0.24 0.00 86 1005.9
20260507042032 55 240 3.0 12.0 0.00 0.24 0.00 86 1005.9
20260507041828 55 290 3.0 12.0 0.00 0.24 0.00 86 1005.8
20260507041626 55 238 3.0 12.0 0.00 0.24 0.00 86 1005.8
20260507041417 56 231 2.0 10.0 0.00 0.24 0.00 87 1005.8
20260507041206 56 297 3.0 8.0 0.00 0.24 0.00 87 1005.7
20260507041001 56 192 3.0 10.0 0.00 0.24 0.00 87 1005.6
20260507040753 56 298 2.0 10.0 0.00 0.24 0.00 86 1005.6
20260507040544 56 286 2.0 10.0 0.00 0.24 0.00 87 1005.5
20260507040341 56 266 2.0 10.0 0.00 0.24 0.00 88 1005.4
20260507040138 57 271 2.0 10.0 0.00 0.24 0.00 88 1005.4
20260507035937 57 265 2.0 10.0 0.00 0.24 0.25 89 1005.4
20260507035733 57 223 2.0 10.0 0.00 0.24 0.25 89 1005.4
20260507035529 57 270 1.0 10.0 0.00 0.24 0.25 89 1005.3
20260507035321 57 335 1.0 10.0 0.00 0.24 0.25 89 1005.3
20260507035112 57 0 1.0 9.0 0.00 0.24 0.24 90 1005.3
20260507034908 57 244 1.0 9.0 0.00 0.24 0.24 90 1005.1
20260507034547 58 253 1.0 9.0 0.00 0.24 0.24 90 1005.1
20260507034341 58 323 2.0 9.0 0.00 0.24 0.24 90 1005.1
20260507034019 58 206 2.0 7.0 0.00 0.24 0.24 90 1005.0
20260507033814 58 229 2.0 7.0 0.00 0.24 0.24 91 1005.1
20260507033613 58 267 2.0 8.0 0.00 0.24 0.24 91 1005.0
20260507033407 58 326 2.0 8.0 0.00 0.24 0.24 91 1004.9
20260507033208 58 42 2.0 8.0 0.00 0.24 0.24 90 1004.8
20260507033009 58 281 2.0 8.0 0.00 0.24 0.24 90 1004.9
20260507032806 58 246 2.0 8.0 0.00 0.24 0.24 90 1004.9
20260507032556 59 144 2.0 8.0 0.00 0.24 0.24 90 1005.0
20260507032356 59 0 2.0 8.0 0.00 0.24 0.24 90 1005.0
20260507032146 59 198 2.0 8.0 0.00 0.24 0.24 90 1004.9
20260507031940 59 200 2.0 8.0 0.00 0.24 0.24 91 1004.8
20260507031738 60 224 2.0 8.0 0.00 0.24 0.24 92 1004.8
20260507031529 60 257 2.0 6.0 0.00 0.24 0.24 92 1005.0
20260507031210 60 259 2.0 6.0 0.00 0.24 0.24 92 1004.8
20260507031006 60 249 2.0 4.0 0.00 0.24 0.24 92 1004.6
20260507030756 60 248 2.0 4.0 0.00 0.24 0.24 92 1004.5
20260507030547 60 229 2.0 4.0 0.00 0.24 0.24 92 1004.5
20260507030347 60 242 2.0 4.0 0.00 0.24 0.24 92 1004.5
20260507030143 60 235 2.0 4.0 0.00 0.24 0.24 92 1004.4
20260507025934 60 235 2.0 4.0 0.00 0.24 0.24 92 1004.4
20260507025729 60 234 2.0 4.0 0.00 0.24 0.24 92 1004.4
20260507025520 60 229 2.0 4.0 0.00 0.24 0.24 92 1004.4
20260507025318 60 193 2.0 4.0 0.00 0.24 0.24 92 1004.5
20260507025108 60 224 2.0 4.0 0.00 0.24 0.24 92 1004.4
20260507024904 60 224 2.0 4.0 0.00 0.24 0.24 92 1004.4
20260507024702 60 211 2.0 3.0 0.00 0.24 0.24 92 1004.4
20260507024501 60 236 2.0 3.0 0.00 0.24 0.24 92 1004.4
20260507024302 60 220 2.0 6.0 0.00 0.24 0.24 92 1004.5
20260507024101 60 220 2.0 6.0 0.00 0.24 0.24 92 1004.4
20260507023857 60 223 2.0 6.0 0.00 0.24 0.24 92 1004.4
20260507023533 60 225 2.0 6.0 0.00 0.24 0.24 92 1004.3
20260507023213 60 207 2.0 6.0 0.00 0.24 0.24 92 1004.4
20260507023006 60 226 2.0 6.0 0.00 0.24 0.24 92 1004.5
20260507022807 60 225 2.0 6.0 0.00 0.24 0.24 92 1004.5
20260507022606 60 229 2.0 6.0 0.00 0.24 0.24 92 1004.4
20260507022407 60 240 1.0 5.0 0.00 0.24 0.24 92 1004.4
20260507022203 60 240 2.0 5.0 0.00 0.24 0.24 92 1004.4
20260507021955 60 232 2.0 5.0 0.00 0.24 0.24 92 1004.5
20260507021745 60 209 2.0 6.0 0.00 0.24 0.24 92 1004.4
20260507021543 60 231 2.0 6.0 0.00 0.24 0.24 92 1004.4
20260507021335 60 227 2.0 6.0 0.00 0.24 0.24 92 1004.4
20260507021130 60 214 2.0 6.0 0.00 0.24 0.24 92 1004.5
20260507020920 60 216 2.0 6.0 0.00 0.24 0.24 92 1004.5
20260507020710 60 220 3.0 8.0 0.00 0.24 0.24 92 1004.5
20260507020509 60 223 2.0 8.0 0.00 0.24 0.24 92 1004.5
20260507020259 60 225 2.0 8.0 0.00 0.24 0.24 92 1004.5
20260507020059 60 202 3.0 8.0 0.00 0.24 0.24 92 1004.6
20260507015853 60 205 3.0 8.0 0.00 0.24 0.24 92 1004.6
20260507015645 60 217 3.0 8.0 0.00 0.24 0.24 92 1004.6
20260507015438 60 229 3.0 8.0 0.00 0.24 0.24 92 1004.6
20260507015239 60 207 3.0 8.0 0.00 0.24 0.24 92 1004.7
20260507015038 60 227 3.0 8.0 0.00 0.24 0.24 92 1004.7
20260507014828 60 223 3.0 5.0 0.00 0.24 0.24 93 1004.7
20260507014510 60 238 2.0 5.0 0.00 0.24 0.24 93 1004.7
20260507014311 60 242 2.0 5.0 0.00 0.24 0.24 93 1004.8
20260507014103 60 210 2.0 5.0 0.00 0.24 0.24 93 1004.7
20260507013855 60 234 2.0 5.0 0.00 0.24 0.24 93 1004.8
20260507013648 60 219 2.0 5.0 0.00 0.24 0.24 93 1004.8
20260507013334 60 216 2.0 5.0 0.00 0.24 0.24 93 1004.8
20260507013127 60 221 2.0 5.0 0.00 0.24 0.24 93 1004.8
20260507012920 60 247 2.0 5.0 0.00 0.24 0.24 93 1004.7
20260507012712 60 226 2.0 5.0 0.00 0.24 0.24 93 1004.7
20260507012510 60 246 2.0 5.0 0.00 0.24 0.24 93 1004.7
20260507012310 60 221 2.0 7.0 0.00 0.24 0.24 93 1004.8
20260507012110 60 232 2.0 7.0 0.00 0.24 0.24 93 1004.8
20260507011911 60 229 2.0 7.0 0.00 0.24 0.24 93 1004.7
20260507011712 60 210 2.0 7.0 0.00 0.24 0.24 93 1004.7
20260507011348 60 210 3.0 10.0 0.00 0.24 0.24 93 1004.8
20260507011141 60 190 3.0 10.0 0.00 0.24 0.24 93 1004.8
20260507010933 60 234 2.0 10.0 0.00 0.24 0.24 93 1004.9
20260507010617 60 214 2.0 10.0 0.00 0.24 0.24 93 1004.8
20260507010413 60 222 3.0 10.0 0.00 0.24 0.24 93 1004.8
20260507010206 60 217 3.0 10.0 0.00 0.24 0.24 93 1004.9
20260507005957 60 219 3.0 10.0 0.00 0.24 0.24 93 1004.9
20260507005758 60 219 3.0 10.0 0.00 0.24 0.24 93 1004.9
20260507005551 60 217 2.0 10.0 0.00 0.24 0.24 93 1004.9
20260507005344 60 163 2.0 9.0 0.00 0.24 0.24 93 1004.9
20260507005136 60 214 2.0 7.0 0.00 0.24 0.24 93 1004.8
20260507004927 60 180 2.0 7.0 0.00 0.24 0.24 93 1004.8
20260507004612 60 246 2.0 7.0 0.00 0.24 0.24 93 1004.8
20260507004405 60 225 2.0 7.0 0.00 0.24 0.24 93 1004.8
20260507004200 60 221 2.0 7.0 0.00 0.24 0.24 93 1004.7
20260507003950 60 219 3.0 7.0 0.00 0.24 0.24 93 1004.8
20260507003746 60 233 2.0 7.0 0.00 0.24 0.24 93 1004.8
20260507003539 60 200 2.0 7.0 0.00 0.24 0.24 93 1004.8
20260507003218 60 235 2.0 6.0 0.00 0.24 0.24 93 1004.8
20260507003015 60 242 2.0 6.0 0.00 0.24 0.24 93 1004.7
20260507002816 60 250 2.0 9.0 0.00 0.24 0.24 93 1004.7
20260507002606 60 237 3.0 9.0 0.00 0.24 0.24 93 1004.7
20260507002249 60 174 3.0 9.0 0.00 0.24 0.24 93 1004.7
20260507002042 60 230 2.0 9.0 0.00 0.24 0.24 93 1004.7
20260507001836 60 235 2.0 9.0 0.00 0.24 0.24 93 1004.7
20260507001633 60 227 2.0 10.0 0.00 0.24 0.24 93 1004.8
20260507001429 60 223 2.0 10.0 0.00 0.24 0.24 93 1004.7
20260507001104 60 244 2.0 10.0 0.00 0.24 0.24 93 1004.6
20260507000857 60 248 2.0 10.0 0.00 0.24 0.24 93 1004.6
20260507000646 60 233 2.0 10.0 0.00 0.24 0.24 93 1004.6
20260507000446 60 233 3.0 10.0 0.00 0.24 0.24 93 1004.6
20260507000237 60 219 2.0 10.0 0.00 0.24 0.24 93 1004.5
20260507000026 60 216 2.0 10.0 0.04 0.24 0.24 93 1004.6
20260506235818 60 150 2.0 7.0 0.04 0.24 0.24 93 1004.5
20260506235612 60 250 2.0 7.0 0.05 0.24 0.24 93 1004.5
20260506235404 60 273 2.0 8.0 0.06 0.24 0.24 93 1004.4
20260506235049 60 240 2.0 8.0 0.06 0.24 0.24 93 1004.4
20260506234842 60 238 2.0 8.0 0.06 0.24 0.24 93 1004.4
20260506234642 60 178 2.0 8.0 0.06 0.24 0.24 93 1004.4
20260506234433 60 225 2.0 8.0 0.06 0.23 0.24 93 1004.5
20260506234227 60 222 2.0 8.0 0.08 0.23 0.23 93 1004.5
20260506234020 60 223 2.0 8.0 0.10 0.23 0.23 93 1004.5
20260506233815 60 250 2.0 8.0 0.13 0.23 0.23 93 1004.6
20260506233613 60 234 3.0 8.0 0.13 0.21 0.23 93 1004.5
20260506233258 60 233 3.0 8.0 0.04 0.21 0.21 93 1004.5
20260506233059 60 229 3.0 8.0 0.04 0.21 0.21 93 1004.5
20260506232850 60 242 3.0 10.0 0.05 0.21 0.21 93 1004.6
20260506232651 60 223 3.0 10.0 0.06 0.21 0.21 93 1004.5
20260506232446 60 223 3.0 10.0 0.06 0.21 0.21 92 1004.6
20260506232243 60 222 3.0 10.0 0.06 0.21 0.21 92 1004.6
20260506231926 60 240 3.0 12.0 0.06 0.21 0.21 92 1004.6
20260506231726 60 218 3.0 12.0 0.06 0.21 0.21 92 1004.7
20260506231526 60 177 3.0 12.0 0.00 0.19 0.20 92 1004.7
20260506231317 60 229 3.0 12.0 0.00 0.19 0.20 92 1004.8
20260506231114 60 224 3.0 12.0 0.00 0.19 0.20 92 1004.8
20260506230910 60 228 3.0 12.0 0.00 0.19 0.20 92 1004.8
20260506230710 60 167 3.0 12.0 0.00 0.19 0.19 92 1004.8
20260506230501 60 180 3.0 12.0 0.00 0.19 0.19 92 1004.7
20260506230258 60 225 3.0 12.0 0.00 0.19 0.19 92 1004.7
20260506230057 60 206 3.0 11.0 0.00 0.19 0.19 92 1004.7
20260506225741 60 238 3.0 11.0 0.00 0.19 0.19 92 1004.7
20260506225540 60 242 3.0 11.0 0.00 0.19 0.19 92 1004.7
20260506225335 60 228 3.0 11.0 0.00 0.19 0.19 92 1004.7
20260506225133 60 200 4.0 11.0 0.00 0.19 0.19 92 1004.7
20260506224928 60 225 3.0 11.0 0.04 0.18 0.18 92 1004.8
20260506224602 60 219 3.0 11.0 0.04 0.18 0.18 92 1004.8
20260506224356 60 229 3.0 11.0 0.04 0.18 0.18 92 1004.8
20260506224146 60 223 2.0 7.0 0.04 0.18 0.18 92 1004.8
20260506223826 60 239 2.0 7.0 0.04 0.18 0.18 92 1004.9
20260506223504 60 217 2.0 7.0 0.04 0.18 0.18 92 1004.9
20260506223254 60 232 2.0 7.0 0.04 0.16 0.18 92 1004.9
20260506223056 60 222 3.0 8.0 0.05 0.16 0.17 92 1004.9
20260506222741 60 240 3.0 8.0 0.06 0.16 0.17 92 1004.9
20260506222539 60 240 3.0 8.0 0.09 0.16 0.17 92 1004.9
20260506222338 60 225 3.0 8.0 0.12 0.16 0.17 92 1005.0
20260506222135 60 220 3.0 8.0 0.13 0.16 0.17 92 1005.0
20260506221925 60 220 3.0 9.0 0.13 0.16 0.17 92 1005.1
20260506221725 60 234 3.0 9.0 0.00 0.16 0.16 92 1005.1
20260506221521 60 223 3.0 9.0 0.00 0.16 0.16 92 1005.1
20260506221319 60 196 3.0 9.0 0.00 0.14 0.15 91 1005.1
20260506221115 60 234 3.0 9.0 0.00 0.14 0.15 91 1005.2
20260506220906 60 184 3.0 13.0 0.00 0.14 0.15 91 1005.2
20260506220702 60 221 2.0 13.0 0.00 0.14 0.15 91 1005.2
20260506220344 60 246 2.0 13.0 0.00 0.14 0.15 91 1005.3
20260506220141 61 224 2.0 13.0 0.00 0.14 0.15 91 1005.2
20260506215935 61 224 3.0 13.0 0.00 0.14 0.15 91 1005.1
20260506215733 61 211 3.0 13.0 0.00 0.14 0.15 91 1005.2
20260506215530 61 237 3.0 13.0 0.04 0.14 0.15 91 1005.2
20260506215331 61 226 3.0 13.0 0.05 0.14 0.15 91 1005.3
20260506215010 61 240 3.0 12.0 0.05 0.14 0.15 91 1005.3
20260506214806 61 202 3.0 12.0 0.05 0.14 0.15 91 1005.4
20260506214559 61 240 3.0 12.0 0.05 0.14 0.15 91 1005.4
20260506214354 61 197 3.0 12.0 0.05 0.14 0.15 91 1005.4
20260506214147 61 213 3.0 8.0 0.05 0.14 0.15 91 1005.4
20260506213944 61 230 3.0 7.0 0.04 0.13 0.13 91 1005.4
20260506213626 61 215 3.0 14.0 0.04 0.13 0.13 91 1005.3
20260506213416 61 230 3.0 14.0 0.04 0.13 0.13 90 1005.4
20260506213054 61 196 3.0 14.0 0.04 0.13 0.13 90 1005.4
20260506212848 61 240 3.0 14.0 0.04 0.13 0.13 90 1005.4
20260506212645 61 233 4.0 14.0 0.04 0.13 0.13 90 1005.5
20260506212445 61 204 4.0 14.0 0.05 0.13 0.13 90 1005.6
20260506212238 61 212 4.0 14.0 0.06 0.13 0.13 90 1005.6
20260506212035 61 267 4.0 14.0 0.06 0.13 0.13 90 1005.7
20260506211835 62 229 4.0 14.0 0.06 0.13 0.13 90 1005.6
20260506211629 62 250 3.0 9.0 0.06 0.13 0.13 91 1005.6
20260506211423 62 244 3.0 9.0 0.06 0.13 0.13 91 1005.7
20260506211221 62 230 3.0 9.0 0.04 0.12 0.12 91 1005.7
20260506210905 62 215 2.0 8.0 0.04 0.12 0.12 91 1005.7
20260506210706 62 247 2.0 7.0 0.04 0.12 0.12 91 1005.7
20260506210505 62 240 1.0 7.0 0.04 0.12 0.12 91 1005.8
20260506210301 62 206 1.0 5.0 0.05 0.10 0.10 91 1005.7
20260506210100 62 242 1.0 4.0 0.05 0.10 0.10 91 1005.8
20260506205856 62 252 1.0 4.0 0.06 0.10 0.10 91 1005.7
20260506205657 62 260 1.0 4.0 0.06 0.10 0.10 91 1005.7
20260506205342 62 213 1.0 10.0 0.06 0.10 0.10 90 1005.8
20260506205141 62 204 1.0 10.0 0.06 0.10 0.10 91 1005.8
20260506204939 62 202 1.0 10.0 0.06 0.09 0.10 90 1005.8
20260506204731 62 202 1.0 10.0 0.06 0.09 0.10 90 1005.8
20260506204524 62 202 2.0 10.0 0.06 0.09 0.10 90 1005.8
20260506204319 62 223 2.0 10.0 0.06 0.09 0.10 90 1005.7
20260506203958 62 237 2.0 10.0 0.06 0.09 0.10 89 1005.7
20260506203753 62 228 2.0 10.0 0.06 0.09 0.09 89 1005.7
20260506203544 62 221 2.0 10.0 0.08 0.09 0.09 89 1005.8
20260506203344 62 218 2.0 8.0 0.10 0.09 0.09 89 1005.8
20260506203138 62 234 2.0 9.0 0.12 0.09 0.09 88 1005.8
20260506202930 62 236 3.0 9.0 0.12 0.09 0.09 88 1005.8
20260506202723 62 227 2.0 9.0 0.09 0.08 0.08 88 1005.8
20260506202518 62 249 3.0 9.0 0.09 0.08 0.08 88 1005.8
20260506202309 63 227 3.0 13.0 0.10 0.06 0.06 87 1005.8
20260506202109 63 223 3.0 13.0 0.15 0.06 0.06 87 1005.8
20260506201859 63 209 3.0 13.0 0.31 0.06 0.06 87 1005.7
20260506201656 63 233 3.0 13.0 0.04 0.06 0.06 87 1005.8
20260506201446 63 214 3.0 13.0 0.04 0.04 0.05 86 1005.8
20260506201131 63 234 3.0 13.0 0.05 0.04 0.05 86 1005.7
20260506200929 63 233 3.0 13.0 0.05 0.04 0.05 86 1005.7
20260506200613 63 216 2.0 13.0 0.05 0.04 0.05 86 1005.7
20260506200412 64 262 2.0 13.0 0.05 0.04 0.05 85 1005.5
20260506200208 64 188 1.0 7.0 0.05 0.04 0.05 86 1005.6
20260506195847 64 178 0.0 7.0 0.05 0.04 0.04 85 1005.6
20260506195637 64 267 0.0 7.0 0.05 0.04 0.04 84 1005.6
20260506195436 64 196 1.0 7.0 0.05 0.04 0.04 85 1005.6
20260506195229 64 196 1.0 7.0 0.05 0.04 0.04 84 1005.7
20260506195030 65 190 1.0 7.0 0.05 0.04 0.04 83 1005.7
20260506194825 65 190 1.0 7.0 0.05 0.03 0.04 83 1005.8
20260506194618 65 190 1.0 7.0 0.05 0.03 0.03 82 1005.7
20260506194414 66 254 1.0 7.0 0.06 0.03 0.03 82 1005.7
20260506194214 66 225 1.0 6.0 0.08 0.03 0.03 81 1005.7
20260506194011 66 197 0.0 6.0 0.08 0.03 0.03 80 1005.7
20260506193801 67 197 0.0 6.0 0.08 0.03 0.03 78 1005.8
20260506193442 67 183 0.0 6.0 0.04 0.02 0.02 81 1005.8
20260506193239 67 175 0.0 3.0 0.04 0.02 0.02 81 1005.9
20260506192922 68 120 0.0 3.0 0.04 0.01 0.02 80 1006.1